Location: F?ge?el
(45.8833°N, 22.5833°E)
Time: 12:28:45
(UTC+00:00)

Nadezhda 4 Rocket - Pass Details

Date: 17 November 2025
Orbit: 949 x 991 km, 82.9° (Epoch: 06 December)

Event Time Altitude Azimuth Distance (km) Brightness Sun altitude
Rises 16:27:24 0° 354° (N) 3,705 7.0 -15.8°
Reaches altitude 10° 16:30:00 10° 358° (N) 2,748 6.3 -16.2°
Maximum altitude 16:36:13 60° 78° (ENE) 1,106 4.0 -17.3°
Drops below altitude 10° 16:42:20 10° 158° (SSE) 2,701 6.2 -18.3°
Sets 16:44:51 0° 162° (SSE) 3,638 6.9 -18.8°
